This is the latest recevied weather packets stored in our database for station/object N9WHM. If no packets are shown the sender has not sent any weather packets the latest 10 day(s).
| Time | Temp. | Humidity | Pressure | Rain* | Wind** | Luminosity | Snow |
|---|---|---|---|---|---|---|---|
| 1777669833 | 13.33° C | 35% | 1018.7 hPa | 0 mm | - | 641 W/m² | - |
| 1777669528 | 12.78° C | 35% | 1018.8 hPa | 0 mm | - | 182 W/m² | - |
| 1777669227 | 12.78° C | 33% | 1019 hPa | 0 mm | - | 629 W/m² | - |
| 1777667103 | 11.67° C | 34% | 1019.1 hPa | 0 mm | - | 663 W/m² | - |
| 1777666799 | 11.67° C | 35% | 1019.1 hPa | 0 mm | - | 157 W/m² | - |
| 1777664366 | 11.67° C | 36% | 1019.1 hPa | 0 mm | - | 248 W/m² | - |
| 1777660724 | 12.22° C | 40% | 1019.1 hPa | 0 mm | - | 839 W/m² | - |
| 1777660422 | 11.67° C | 37% | 1019.1 hPa | 0 mm | - | 826 W/m² | - |
| 1777660118 | 11.67° C | 39% | 1019.3 hPa | 0 mm | - | 800 W/m² | - |
| 1777659815 | 11.67° C | 39% | 1019.3 hPa | 0 mm | - | 795 W/m² | - |
| 1777659512 | 11.67° C | 38% | 1019.3 hPa | 0 mm | - | 828 W/m² | - |
| 1777658906 | 11.67° C | 40% | 1019.4 hPa | 0 mm | - | 861 W/m² | - |
| 1777656785 | 11.67° C | 43% | 1019.4 hPa | 0 mm | - | 180 W/m² | - |
| 1777655569 | 11.67° C | 45% | 1019.4 hPa | 0 mm | - | 777 W/m² | - |
| 1777653752 | 10° C | 53% | 1019.3 hPa | 0 mm | - | 142 W/m² | - |
| 1777653448 | 10.56° C | 55% | 1019.4 hPa | 0 mm | - | 180 W/m² | - |
| 1777653145 | 10° C | 53% | 1019.4 hPa | 0 mm | - | 375 W/m² | - |
| 1777652841 | 10.56° C | 56% | 1019.4 hPa | 0 mm | - | 745 W/m² | - |
| 1777652537 | 10° C | 57% | 1019.3 hPa | 0 mm | - | 328 W/m² | - |
| 1777652235 | 10° C | 57% | 1019.2 hPa | 0 mm | - | 220 W/m² | - |
| 1777651932 | 10.56° C | 58% | 1019.5 hPa | 0 mm | - | 183 W/m² | - |
| 1777651628 | 10.56° C | 58% | 1019.2 hPa | 0 mm | - | 696 W/m² | - |
| 1777651326 | 11.11° C | 57% | 1019 hPa | 0 mm | - | 688 W/m² | - |
| 1777651022 | 10.56° C | 58% | 1018.9 hPa | 0 mm | - | 727 W/m² | - |
| 1777650719 | 10.56° C | 59% | 1019.1 hPa | 0 mm | - | 640 W/m² | - |
* Rain latest hour (hover to see other rain measurements)
** Current wind speed in m/s (hover to see current wind gust speed)